Printer-friendly version

IAU Minor Planet Center

Minor Planet Center

MPEC 2005-E56 : 2005 EA94

The following Minor Planet Electronic Circular may be linked-to from your own Web pages, but must not otherwise be redistributed electronically.


Read MPEC 2005-E55 Read MPEC 2005-E57


M.P.E.C. 2005-E56                                Issued 2005 Mar. 11, 00:46 UT

     The Minor Planet Electronic Circulars contain information on unusual
         minor planets and routine data on comets.  They are published
   on behalf of Commission 20 of the International Astronomical Union by the
          Minor Planet Center, Smithsonian Astrophysical Observatory,
                          Cambridge, MA 02138, U.S.A.

                  Supported in part by the Brinson Foundation
             Prepared using the Tamkin Foundation Computer Network

                              MPC@CFA.HARVARD.EDU
          URL http://cfa-www.harvard.edu/iau/mpc.html  ISSN 1523-6714

                                   2005 EA94

Observations:
     K05E94A* C2005 03 08.10819 03 18 28.29 +44 46 54.4          18.6   EE056704
     K05E94A  C2005 03 08.11954 03 18 39.05 +44 47 56.5          19.0   EE056704
     K05E94A  C2005 03 08.13160 03 18 50.54 +44 49 02.7          18.3   EE056704
     K05E94A  C2005 03 08.14309 03 19 01.52 +44 50 07.0          19.4   EE056704
     K05E94A  C2005 03 08.15720 03 19 14.96 +44 51 22.8          19.3   EE056704
     K05E94A  C2005 03 10.10529 03 51 36.62 +47 33 00.4          16.4   EE056704
     K05E94A  C2005 03 10.11619 03 51 47.80 +47 33 44.9          18.8   EE056704
     K05E94A  C2005 03 10.11631 03 51 47.83 +47 33 45.9          18.7   EE056704
     K05E94A  C2005 03 10.12919 03 52 01.03 +47 34 40.2          18.6   EE056704
     K05E94A  C2005 03 10.12931 03 52 00.98 +47 34 40.9          18.7   EE056704
     K05E94A  C2005 03 10.14012 03 52 12.09 +47 35 27.4          18.8   EE056704
     K05E94A  C2005 03 10.14024 03 52 12.29 +47 35 27.1          18.8   EE056704
     K05E94A  C2005 03 10.15106 03 52 23.25 +47 36 13.0          18.7   EE056704
     K05E94A  C2005 03 10.15118 03 52 23.43 +47 36 13.9          18.6   EE056704
     K05E94A SC2005 03 10.95574 04 06 20.26 +48 30 26.3                 EE056J95
     K05E94A SC2005 03 10.95928 04 06 23.89 +48 30 39.0                 EE056J95

Observer details:
704 Lincoln Laboratory ETS, New Mexico.  Observers M. Blythe, F. Shelly,
    M. Bezpalko, R. Huber, L. Manguso, D. Torres, R. Krack, R. Kracke,
    M. McCleary, H. Stange, A. Milner.  Measurers J. Stuart, R. Sayer,
    J. Evans, J. Kommers.  1.0-m f/2.15 reflector + CCD.
J95 Great Shefford.  Observer P. Birtwhistle.  0.30-m f/6.3 Schmidt-Cassegrain
    + CCD.

Orbital elements:
2005 EA94
Epoch 2005 Feb. 19.0 TT = JDT 2453420.5                 MPC
M  21.07299              (2000.0)            P               Q
n   0.65948348     Peri.  303.52819     +0.61403434     -0.77261166
a   1.3071741      Node   107.75214     +0.76863962     +0.53890599
e   0.6060173      Incl.    9.75377     +0.17931803     +0.33563604
P   1.49           H   17.6           G   0.15
From 16 observations 2005 Mar. 8-10.

Ephemeris:
2005 EA94                a,e,i = 1.31, 0.61, 10                  q = 0.5150
Date    TT    R. A. (2000) Decl.     Delta      r     Elong.  Phase     V
2005 03 11    04 07.13   +48 33.4    0.276    0.985    80.2    83.8    17.7
2005 03 21    06 49.78   +50 32.0    0.337    1.093    97.5    64.7    17.7
2005 03 31    08 24.56   +44 31.8    0.439    1.194   105.6    53.7    18.2
2005 04 10    09 15.42   +38 24.7    0.562    1.290   107.8    47.7    18.7
2005 04 20    09 47.88   +33 20.3    0.698    1.379   106.8    44.2    19.2
2005 04 30    10 12.04   +29 07.3    0.843    1.462   104.1    41.9    19.7
2005 05 10    10 32.09   +25 29.5    0.994    1.539   100.4    40.2    20.1
2005 05 20    10 49.95   +22 16.0    1.150    1.610    96.1    38.7    20.5
2005 05 30    11 06.56   +19 19.7    1.309    1.676    91.5    37.2    20.8
2005 06 09    11 22.45   +16 35.9    1.469    1.736    86.7    35.7    21.1
2005 06 19    11 37.94   +14 01.4    1.629    1.791    81.7    34.1    21.3
2005 06 29    11 53.18   +11 34.4    1.787    1.842    76.7    32.5    21.6
2005 07 09    12 08.33   +09 13.4    1.942    1.887    71.6    30.8    21.7
2005 07 19    12 23.47   +06 57.5    2.092    1.928    66.5    28.9    21.9
2005 07 29    12 38.65   +04 46.1    2.236    1.964    61.4    27.0    22.0

Timothy B. Spahr             (C) Copyright 2005 MPC           M.P.E.C. 2005-E56

Read MPEC 2005-E55 Read MPEC 2005-E57


Our Web policy. Index to the CBAT/MPC/ICQ pages.


Valid HTML 4.01!